Wetbulb
58.74 58.97 58.73 58.59 58.86 58.72 58.59 58.66 58.53 58.42 58.32 58.25 58.10 57.93 58.01 58.01 58.08 58.21 58.43 58.44 58.16 57.81 57.57 58.57 59.50 59.80 61.47 58.20 56.44 66.82 70.81 71.92 66.40 67.33 62.78 61.59 60.66 61.71 60.09 60.17 60.50 60.78 64.09 65.35 66.54 67.07 66.68
58.12 57.99 57.91 57.80 57.71 58.22 58.21 58.09 58.04 57.82 57.82 57.63 57.56 57.68 57.72 57.70 57.73 57.78 57.82 57.03 56.58 56.69 57.10 58.19 59.66 59.51 60.83 54.43 60.19 66.09 68.76 63.63 63.23 65.17 62.56 62.15 60.62 61.75 58.88 59.74 58.97 62.82 64.98 65.08 66.46 66.32 66.86
57.86 57.71 57.76 57.55 57.25 57.12 57.24 57.20 57.41 57.24 57.17 57.21 57.05 57.07 57.07 57.25 57.32 57.28 56.88 56.25 55.86 56.85 57.89 58.56 59.99 61.83 60.85 56.91 60.48 67.43 67.38 63.42 63.98 64.25 61.83 61.73 61.82 59.91 61.14 59.20 62.04 63.23 61.50 63.50 65.35 65.53 64.91
57.20 57.37 57.01 56.92 56.71 56.62 56.57 56.63 56.81 56.72 56.45 56.51 56.49 56.51 56.49 56.53 56.56 56.22 55.58 54.93 55.97 59.52 60.02 59.21 60.25 62.90 58.98 61.53 63.08 66.76 66.88 63.38 64.16 64.84 62.41 62.78 61.73 60.98 60.60 61.49 59.22 59.68 60.38 58.53 63.21 64.43 66.01
57.38 57.20 57.01 56.82 56.71 56.51 56.53 56.35 56.25 56.35 56.66 56.57 56.41 56.21 56.15 56.07 55.96 55.63 54.73 54.68 57.04 60.30 59.42 60.10 62.29 62.29 56.88 61.42 56.88 66.09 65.55 61.53 60.76 61.82 61.72 61.25 60.52 59.39 60.73 57.12 55.75 57.17 55.26 56.83 60.29 63.95 63.81
57.29 57.13 57.11 57.02 56.76 56.93 56.86 56.78 56.74 56.49 56.51 56.37 56.47 56.24 56.11 55.85 55.94 55.11 54.26 54.48 59.15 60.48 62.26 64.16 63.23 58.29 57.97 56.57 58.50 64.56 63.86 62.19 57.66 57.40 57.65 57.77 58.18 57.14 57.44 55.83 51.24 53.39 53.49 56.61 56.79 61.74 60.53
57.39 57.11 57.02 56.78 56.72 57.08 56.82 56.74 56.64 56.47 56.45 56.29 56.00 55.91 55.74 55.68 55.11 54.12 55.61 62.27 61.68 61.76 61.58 59.73 59.39 56.87 56.33 59.16 62.82 61.40 61.71 60.12 58.30 55.94 53.16 56.40 53.85 52.66 55.05 57.24 56.85 56.15 54.60 54.13 57.11 58.21 56.93
57.17 56.88 56.79 56.46 56.79 57.02 56.75 56.47 56.10 56.08 56.04 55.92 55.67 55.54 55.34 55.09 54.56 53.75 57.66 61.28 61.54 61.70 57.39 61.87 60.42 59.25 60.70 60.17 57.68 59.61 60.57 56.15 55.95 52.41 53.88 53.95 51.37 55.03 56.62 57.44 56.75 55.32 53.53 53.88 56.73 57.90 57.57
56.77 56.62 56.71 56.96 56.91 56.73 56.47 56.24 55.87 55.81 55.57 55.42 55.38 55.13 54.74 54.21 53.36 55.77 61.02 61.95 64.43 63.55 57.76 59.17 60.42 59.53 59.26 59.95 56.29 58.43 58.36 56.13 53.93 53.45 52.93 51.23 53.31 55.15 54.34 55.20 54.24 53.86 53.46 53.76 54.32 55.96 56.31
56.82 56.84 56.89 56.95 56.73 56.52 56.24 56.05 55.83 55.67 55.32 55.18 55.10 54.83 53.83 52.70 52.65 63.54 61.46 64.43 64.66 63.63 55.46 55.42 56.52 58.71 60.47 59.64 55.85 61.33 60.89 56.28 53.91 51.21 52.92 52.46 54.48 52.92 52.86 53.22 54.24 51.75 55.46 54.92 54.24 52.86 50.33
57.11 56.20 56.73 56.61 56.52 56.16 56.09 55.81 55.71 55.24 54.85 54.75 54.63 54.23 52.70 51.48 58.69 59.28 63.12 65.28 64.19 62.67 49.01 56.28 57.02 62.66 60.84 57.10 58.30 57.77 62.08 58.36 54.04 53.10 52.82 51.63 52.03 51.75 51.59 52.33 53.92 52.28 55.94 54.24 53.55 52.57 52.71
56.68 56.29 56.56 56.51 56.36 56.03 55.62 55.50 55.22 54.59 54.46 54.26 53.80 52.94 52.22 54.84 58.14 61.21 63.70 63.82 62.57 52.57 47.91 53.61 57.30 55.69 56.60 56.85 57.77 59.18 58.08 59.85 58.75 55.85 55.51 53.83 55.83 54.10 53.52 54.15 53.97 54.51 52.23 52.80 52.75 51.79 48.28
56.18 56.01 56.33 56.44 56.21 55.79 55.46 55.21 54.83 54.24 53.79 53.15 52.02 51.18 52.57 60.77 60.43 62.17 63.16 61.37 52.81 49.39 57.10 53.28 54.37 56.72 55.59 54.66 55.53 56.80 54.70 54.16 53.45 51.23 51.90 53.63 52.84 54.82 54.82 52.17 54.35 53.35 50.83 46.33 45.68 46.33 46.77
56.16 55.90 56.52 56.05 55.93 55.44 55.46 55.30 54.55 53.85 53.19 52.03 50.43 49.45 56.70 60.78 64.15 62.73 62.01 56.92 49.64 52.78 53.96 56.30 55.61 56.16 53.86 55.26 55.60 55.86 54.56 53.00 55.69 55.28 53.13 51.46 49.70 53.89 55.30 53.31 52.13 51.76 50.95 47.41 44.29 46.21 49.79
56.43 56.47 56.30 55.93 55.54 55.40 55.44 55.07 54.20 53.46 52.57 51.30 49.69 61.96 63.78 63.95 63.48 63.53 59.34 52.23 53.02 53.57 55.95 54.54 55.65 53.77 53.92 55.33 55.40 55.10 55.13 54.61 56.05 56.20 52.47 52.79 51.83 56.80 56.80 56.27 55.01 52.59 50.34 53.25 48.84 50.09 48.62
56.27 56.15 56.00 55.73 55.48 55.23 55.36 54.87 54.01 53.21 52.26 50.83 58.76 63.10 62.89 63.21 64.33 61.92 56.50 50.25 54.60 55.78 56.07 55.79 53.25 54.87 52.79 54.20 53.79 54.41 54.56 56.92 56.19 57.42 58.17 55.50 51.59 55.74 55.87 57.01 56.78 54.26 55.66 50.30 50.53 45.01 44.72
56.13 55.90 55.89 55.89 55.77 55.34 55.46 55.07 53.97 53.09 51.77 50.99 59.51 60.36 62.42 64.14 63.93 58.97 53.10 54.49 54.68 56.30 56.77 54.99 54.44 54.38 54.47 54.15 54.56 53.62 54.08 56.45 56.99 57.24 58.36 56.47 54.56 53.93 56.09 54.01 53.35 53.73 52.56 52.67 52.53 51.17 47.20
56.10 55.97 56.03 55.87 55.62 55.20 55.36 54.81 53.78 52.14 50.78 55.80 60.81 57.61 63.52 64.47 56.35 57.52 55.23 56.60 48.94 55.59 57.67 55.42 56.04 56.21 55.55 55.67 54.17 53.83 53.92 55.78 57.98 57.60 54.89 57.13 54.67 51.64 53.33 56.94 57.42 56.21 54.86 54.43 49.43 48.87 50.58
56.12 55.91 55.97 55.73 55.63 55.38 55.08 54.66 53.35 51.94 51.28 55.42 57.93 59.16 64.41 62.64 54.28 56.32 58.57 56.64 56.66 56.10 55.88 55.27 54.37 55.37 56.55 54.92 53.44 54.82 55.15 58.04 57.72 56.57 55.45 56.79 53.17 49.53 51.27 54.48 56.71 54.26 55.12 55.09 54.83 53.79 51.23
56.00 55.82 55.62 55.51 55.57 55.20 54.98 54.44 53.17 51.93 51.37 54.71 58.35 55.68 60.02 60.07 59.52 56.88 56.22 56.01 55.69 57.25 55.47 55.92 55.68 56.95 54.92 53.90 55.83 54.95 55.16 56.76 57.34 57.18 61.29 60.85 54.63 52.40 49.14 52.24 54.98 53.08 53.87 54.74 53.80 50.63 51.30
56.05 55.74 55.43 55.23 54.93 55.03 54.83 54.42 53.40 52.01 51.11 55.57 59.84 57.72 56.70 55.83 57.76 56.63 56.59 55.68 54.30 54.44 56.65 56.45 55.22 54.93 54.64 53.32 54.10 53.65 55.54 56.60 57.40 58.63 57.64 56.78 52.01 53.68 53.83 54.34 54.34 53.71 53.44 53.94 53.04 53.77 51.46
55.90 55.70 55.41 54.97 54.73 54.36 54.74 54.54 53.70 52.28 50.51 58.05 54.05 53.52 56.25 54.45 55.56 54.29 51.38 53.86 53.87 55.10 55.34 54.74 54.25 55.40 54.93 53.50 54.89 54.01 55.76 56.64 55.49 58.01 56.54 57.40 52.99 54.44 52.65 54.43 54.32 52.93 53.94 53.93 53.71 53.66 53.72
55.88 55.66 55.17 54.81 54.60 54.11 54.28 54.43 54.03 52.60 51.76 56.27 56.12 57.96 54.91 52.02 53.67 53.07 53.71 54.25 53.51 54.83 55.58 56.09 55.60 54.96 54.21 55.42 56.72 57.95 58.30 58.28 58.03 57.02 56.64 55.93 53.99 52.82 49.71 53.50 53.35 50.27 53.09 53.75 54.47 55.48 54.77
55.90 55.66 55.07 54.50 54.13 53.74 53.85 54.19 54.22 53.42 51.90 55.79 55.79 55.13 53.50 51.34 53.79 52.05 52.13 52.29 52.05 53.37 52.66 55.08 55.21 53.99 56.67 59.17 58.72 57.83 57.19 57.02 57.25 56.87 57.23 54.47 54.28 53.95 49.92 51.75 44.05 53.50 57.26 56.37 54.89 55.93 56.45
55.80 55.66 54.90 54.33 53.78 53.25 53.36 53.32 53.78 53.87 52.97 55.28 56.78 54.46 53.41 49.99 52.56 51.55 51.15 51.23 52.57 53.41 51.92 52.11 53.95 56.42 58.31 56.13 52.17 50.39 50.79 52.11 53.28 54.97 55.26 55.83 53.75 50.36 47.86 48.01 51.21 52.80 54.69 54.19 53.49 53.69 57.29
55.95 55.55 54.78 53.94 53.43 52.69 52.80 53.12 53.09 53.63 53.21 54.54 57.22 56.19 54.14 50.57 51.82 52.33 50.87 51.88 50.58 51.12 51.57 53.00 55.83 57.35 56.29 52.47 50.59 46.24 45.00 48.77 48.50 51.08 55.27 54.80 55.27 51.11 48.71 44.89 43.44 51.82 55.13 57.42 56.97 49.74 56.78
55.90 55.38 54.54 53.40 52.70 52.27 52.76 52.93 52.85 52.84 53.35 53.26 56.55 56.47 53.94 50.44 54.06 52.89 51.16 51.00 53.34 51.59 50.27 52.20 53.30 53.28 55.27 50.11 47.62 46.90 46.82 51.43 46.70 47.23 48.96 49.83 50.76 47.83 47.59 46.28 49.12 54.33 56.03 57.11 48.34 50.45 60.63
55.54 55.05 54.30 52.88 52.03 51.97 52.60 52.76 52.57 52.71 53.01 53.07 55.56 56.96 52.62 50.71 52.64 53.19 53.07 51.33 52.07 52.05 48.71 53.16 51.40 51.89 50.41 48.28 47.88 48.32 48.05 49.59 48.96 50.78 49.50 48.76 46.75 47.00 47.78 45.37 43.85 56.02 54.90 51.98 55.55 59.48 60.45
55.37 54.91 53.80 52.28 51.32 51.82 52.53 52.57 52.61 52.50 52.79 52.61 53.86 57.26 56.62 50.32 51.61 54.65 54.38 54.62 54.42 54.32 52.74 53.06 51.82 52.77 53.52 50.83 51.63 51.11 48.69 50.18 49.45 45.14 52.85 46.89 50.36 48.20 48.99 48.48 56.16 58.66 58.07 59.08 59.29 58.05 59.24
MSLP
1022.24 1021.96 1021.67 1021.40 1021.12 1020.81 1020.51 1020.20 1019.87 1019.53 1019.17 1018.83 1018.52 1018.20 1017.84 1017.44 1017.11 1016.77 1016.38 1016.05 1015.74 1015.50 1015.25 1014.93 1014.58 1014.33 1013.82 1010.56 1007.41 1008.02 1008.81 1009.17 1009.15 1008.72 1007.23 1006.47 1005.79 1005.27 1004.45 1004.31 1004.27 1004.22 1004.64 1005.18 1005.24 1004.84 1004.93
1022.45 1022.17 1021.85 1021.55 1021.23 1020.91 1020.59 1020.28 1019.93 1019.57 1019.21 1018.84 1018.49 1018.10 1017.72 1017.31 1016.91 1016.51 1016.16 1015.86 1015.57 1015.28 1014.98 1014.67 1014.38 1014.36 1012.52 1008.57 1006.86 1007.04 1007.41 1008.43 1007.89 1007.67 1006.67 1006.04 1005.40 1005.07 1004.87 1004.34 1004.18 1004.35 1004.65 1004.75 1004.91 1004.67 1004.55
1022.58 1022.28 1021.95 1021.63 1021.28 1020.99 1020.68 1020.34 1019.97 1019.57 1019.17 1018.78 1018.38 1017.99 1017.62 1017.21 1016.79 1016.37 1015.94 1015.56 1015.20 1014.81 1014.54 1014.35 1014.16 1013.43 1010.41 1007.14 1007.01 1006.85 1007.01 1007.37 1007.10 1006.95 1006.02 1005.86 1005.53 1005.44 1004.35 1004.02 1004.04 1004.15 1003.78 1003.86 1004.29 1004.45 1004.29
1022.77 1022.45 1022.12 1021.79 1021.45 1021.08 1020.72 1020.32 1019.90 1019.51 1019.11 1018.69 1018.24 1017.83 1017.44 1017.00 1016.60 1016.24 1015.81 1015.35 1014.83 1014.21 1013.83 1013.96 1013.97 1012.52 1008.19 1006.73 1006.80 1006.81 1006.52 1006.71 1006.70 1006.66 1006.22 1005.75 1006.12 1005.56 1004.62 1004.06 1004.03 1003.52 1003.13 1003.08 1003.86 1004.23 1004.32
1022.98 1022.66 1022.29 1021.94 1021.57 1021.15 1020.70 1020.29 1019.89 1019.50 1019.04 1018.56 1018.04 1017.56 1017.15 1016.75 1016.33 1015.92 1015.47 1015.04 1014.42 1013.84 1013.69 1013.72 1013.16 1010.84 1006.82 1007.68 1006.86 1006.18 1006.27 1006.15 1006.41 1006.47 1006.62 1006.42 1006.45 1005.39 1004.39 1004.03 1002.91 1002.45 1001.77 1002.21 1003.16 1004.02 1003.97
1023.13 1022.77 1022.40 1022.04 1021.65 1021.22 1020.72 1020.23 1019.77 1019.30 1018.83 1018.38 1017.93 1017.42 1016.92 1016.46 1016.02 1015.59 1015.12 1014.74 1014.17 1013.87 1013.37 1012.38 1010.81 1009.31 1006.55 1005.44 1005.36 1005.82 1005.96 1005.94 1006.14 1006.17 1006.39 1006.53 1005.71 1004.77 1004.07 1003.08 1001.52 1001.05 1001.60 1002.36 1002.61 1003.37 1003.70
1023.28 1022.92 1022.53 1022.13 1021.70 1021.25 1020.75 1020.26 1019.74 1019.20 1018.65 1018.13 1017.68 1017.17 1016.68 1016.18 1015.75 1015.42 1014.61 1013.59 1013.10 1011.74 1010.40 1007.24 1006.34 1005.63 1005.18 1004.94 1005.56 1005.63 1005.79 1005.82 1005.87 1005.83 1005.38 1005.37 1004.66 1003.43 1002.83 1002.42 1001.98 1001.97 1002.38 1002.53 1002.61 1002.87 1003.41
1023.42 1023.08 1022.70 1022.27 1021.80 1021.29 1020.75 1020.19 1019.63 1019.07 1018.47 1017.87 1017.38 1016.90 1016.38 1015.90 1015.48 1015.05 1014.41 1010.41 1008.38 1008.20 1006.80 1006.18 1005.73 1005.12 1004.97 1005.09 1004.93 1004.99 1005.42 1005.33 1005.29 1004.77 1004.78 1004.09 1003.49 1002.87 1002.57 1002.20 1002.04 1002.33 1002.37 1002.18 1002.17 1002.99 1003.02
1023.54 1023.17 1022.75 1022.32 1021.82 1021.28 1020.71 1020.08 1019.47 1018.88 1018.28 1017.64 1017.00 1016.53 1016.07 1015.56 1015.17 1014.39 1011.41 1008.79 1008.30 1007.91 1006.07 1004.29 1004.49 1004.42 1004.61 1004.97 1003.83 1004.13 1004.97 1004.56 1004.29 1004.03 1003.51 1002.90 1001.95 1002.19 1002.34 1002.03 1002.35 1002.27 1002.01 1001.74 1001.91 1002.41 1002.69
1023.60 1023.21 1022.78 1022.34 1021.81 1021.22 1020.63 1019.94 1019.22 1018.53 1017.88 1017.23 1016.64 1016.13 1015.75 1015.33 1014.99 1010.28 1009.29 1008.17 1008.23 1008.06 1005.18 1003.33 1003.59 1003.40 1003.66 1004.02 1003.16 1003.03 1004.28 1003.96 1003.53 1003.11 1002.83 1002.41 1002.24 1002.16 1002.07 1001.95 1002.25 1001.61 1001.61 1001.92 1002.05 1002.43 1001.53
1023.65 1023.25 1022.80 1022.34 1021.82 1021.22 1020.59 1019.89 1019.07 1018.26 1017.49 1016.78 1016.15 1015.68 1015.39 1015.51 1013.08 1009.59 1008.41 1008.23 1008.12 1007.72 1003.24 1002.29 1002.62 1003.21 1003.14 1003.07 1001.78 1002.87 1003.50 1003.57 1002.78 1002.59 1002.52 1001.71 1001.76 1001.64 1001.87 1001.69 1001.83 1001.62 1001.51 1001.80 1001.87 1001.89 1001.56
1023.70 1023.29 1022.80 1022.27 1021.73 1021.15 1020.48 1019.71 1018.84 1017.92 1017.04 1016.22 1015.57 1015.09 1014.87 1014.01 1012.58 1009.12 1008.75 1008.35 1008.00 1005.87 1001.39 1001.42 1002.01 1002.50 1002.31 1002.45 1001.76 1002.07 1003.00 1003.48 1002.93 1002.37 1002.08 1001.73 1001.45 1001.66 1001.42 1001.50 1001.65 1001.83 1002.07 1001.84 1001.76 1001.31 1000.38
1023.77 1023.34 1022.83 1022.26 1021.65 1020.99 1020.28 1019.53 1018.66 1017.68 1016.65 1015.63 1014.85 1014.33 1014.12 1011.13 1008.70 1008.72 1008.62 1007.87 1005.78 1002.56 1000.65 1000.58 1000.68 1001.13 1001.46 1001.44 1001.42 1002.04 1002.30 1002.52 1002.12 1001.96 1001.22 1001.21 1001.17 1001.28 1001.72 1001.27 1001.10 1001.38 1001.25 1000.67 1000.27 999.58 998.66
1023.77 1023.32 1022.79 1022.25 1021.59 1020.83 1020.06 1019.23 1018.30 1017.28 1016.15 1014.92 1014.02 1013.71 1012.12 1010.27 1009.30 1009.02 1008.42 1006.74 1003.64 1000.64 999.73 1000.01 999.98 1000.15 1000.24 1000.41 1000.55 1000.97 1001.47 1001.35 1001.57 1000.82 999.75 999.49 999.36 999.75 1000.54 1000.87 1000.23 1000.68 1000.47 999.52 998.53 997.77 996.80
1023.70 1023.24 1022.75 1022.17 1021.48 1020.73 1019.94 1019.05 1018.00 1016.78 1015.56 1014.48 1013.01 1011.42 1009.62 1009.02 1009.24 1008.97 1007.33 1004.43 1001.28 1000.24 1000.23 1000.03 999.83 999.46 999.40 999.44 999.72 1000.03 1000.17 1000.01 999.98 1000.47 999.83 998.39 998.65 999.09 999.48 1000.07 1000.64 999.98 999.98 999.93 999.09 998.41 997.56
1023.65 1023.23 1022.75 1022.16 1021.49 1020.74 1019.88 1019.00 1017.92 1016.64 1015.10 1014.44 1012.26 1008.95 1008.01 1008.63 1008.77 1008.23 1006.40 1003.31 1001.60 1001.73 1001.65 1001.01 999.65 998.96 998.41 998.65 999.15 999.11 998.98 998.90 998.93 999.33 999.83 999.00 998.82 998.92 999.38 999.99 999.82 999.80 999.47 999.15 999.00 998.38 997.52
1023.69 1023.28 1022.81 1022.22 1021.58 1020.88 1020.04 1019.09 1018.07 1016.77 1015.06 1013.58 1011.88 1007.77 1007.88 1008.08 1008.22 1007.03 1004.53 1002.14 1001.76 1001.95 1002.18 1001.20 1000.13 999.21 998.94 998.01 998.14 998.48 998.37 998.24 998.69 998.65 999.45 999.60 999.18 998.42 998.79 999.21 998.76 999.11 999.30 999.13 998.64 997.87 996.99
1023.68 1023.30 1022.85 1022.33 1021.71 1020.97 1020.15 1019.25 1018.26 1017.18 1015.40 1012.27 1010.20 1006.87 1007.59 1007.68 1006.86 1004.96 1003.38 1002.37 1003.26 1002.46 1002.32 1001.97 1001.43 1000.64 999.65 998.90 998.50 998.17 997.79 997.93 998.40 998.93 999.04 999.33 998.97 998.44 998.13 998.12 998.34 998.12 997.76 997.99 998.03 998.21 997.79
1023.60 1023.30 1022.86 1022.37 1021.85 1021.15 1020.30 1019.40 1018.40 1017.67 1017.27 1015.15 1010.40 1007.41 1007.16 1007.15 1005.28 1003.63 1003.06 1003.29 1003.22 1002.68 1002.36 1001.99 1001.58 1001.09 1000.55 1000.14 999.61 999.04 998.37 999.16 999.58 999.97 999.91 999.65 999.40 998.74 998.00 997.57 997.25 997.40 997.95 997.84 997.34 997.13 996.70
1023.50 1023.21 1022.85 1022.41 1021.88 1021.29 1020.52 1019.64 1018.71 1017.65 1017.28 1016.33 1010.96 1007.08 1006.23 1006.60 1005.67 1005.10 1003.77 1003.33 1002.97 1003.26 1003.44 1003.03 1002.67 1002.03 1001.77 1001.02 1000.54 999.76 999.09 999.24 1000.42 1000.74 1001.44 1000.85 999.63 998.78 997.69 996.86 996.83 997.42 997.60 997.93 997.58 997.00 996.64
1023.38 1023.12 1022.85 1022.50 1022.00 1021.41 1020.80 1020.02 1018.93 1017.65 1016.46 1015.98 1010.85 1008.15 1008.34 1005.70 1005.30 1005.38 1004.89 1004.45 1003.76 1003.34 1003.46 1003.62 1003.21 1002.78 1002.16 1001.40 1000.81 1000.17 1000.24 999.95 1000.58 1001.47 1001.76 1001.36 1000.35 999.92 998.97 998.24 997.80 997.88 997.92 998.07 997.87 997.70 997.36
1023.22 1023.02 1022.78 1022.45 1022.08 1021.60 1020.96 1020.27 1019.41 1018.04 1016.22 1014.25 1012.34 1011.05 1009.52 1008.11 1007.10 1006.78 1005.81 1005.14 1004.46 1004.15 1003.88 1003.90 1003.65 1003.29 1003.16 1002.85 1002.22 1001.20 1001.08 1000.54 1000.24 1000.67 1001.51 1001.32 1000.58 1000.39 999.51 999.08 998.71 998.22 998.36 998.22 998.09 998.10 997.99
1022.97 1022.88 1022.73 1022.50 1022.18 1021.81 1021.28 1020.65 1019.89 1018.97 1017.09 1014.35 1013.92 1012.57 1011.66 1008.77 1007.38 1006.66 1005.58 1005.33 1005.44 1005.54 1005.45 1005.18 1004.88 1004.77 1004.31 1004.13 1004.26 1003.39 1003.09 1002.26 1001.72 1001.23 1001.10 1001.23 1000.95 1000.61 999.72 999.96 999.14 998.36 998.62 998.44 998.19 998.00 997.95
1022.70 1022.62 1022.57 1022.43 1022.17 1021.89 1021.50 1021.00 1020.40 1019.81 1019.41 1017.18 1015.65 1014.59 1011.97 1009.02 1008.08 1007.28 1007.17 1007.43 1007.25 1006.88 1006.70 1006.09 1006.00 1005.87 1005.49 1006.00 1005.31 1004.46 1003.76 1003.05 1002.57 1002.18 1002.06 1002.00 1001.81 1001.35 1000.83 1000.58 998.94 998.68 998.45 998.31 998.15 998.04 998.02
1022.39 1022.31 1022.30 1022.26 1022.14 1021.92 1021.63 1021.21 1020.72 1020.26 1019.78 1017.78 1016.38 1015.37 1013.22 1010.84 1008.99 1008.57 1008.18 1008.07 1007.93 1007.73 1007.61 1007.38 1007.00 1006.77 1006.47 1006.59 1005.61 1004.54 1003.62 1002.87 1002.27 1002.17 1002.16 1002.30 1002.22 1001.74 1001.43 1000.53 999.52 998.95 998.80 998.78 998.53 998.36 998.95
1022.12 1022.05 1022.08 1022.10 1022.07 1021.90 1021.68 1021.38 1020.95 1020.52 1020.08 1018.69 1016.86 1016.92 1015.06 1012.77 1010.00 1010.31 1009.74 1009.07 1008.47 1007.64 1007.06 1006.83 1007.24 1007.56 1007.26 1006.45 1005.32 1004.29 1003.20 1002.56 1001.70 1001.52 1001.80 1002.00 1002.13 1002.21 1001.77 1000.95 999.51 999.29 999.14 999.67 1000.10 999.16 999.47
1021.80 1021.84 1021.93 1022.02 1022.03 1021.91 1021.70 1021.41 1021.14 1020.79 1020.35 1019.68 1017.11 1017.53 1016.05 1013.82 1011.35 1011.31 1010.14 1010.09 1009.51 1009.01 1008.05 1007.21 1007.17 1007.45 1007.23 1006.24 1004.99 1003.95 1002.98 1002.69 1002.08 1001.70 1001.51 1001.82 1002.05 1001.81 1001.45 1001.01 1000.20 1000.41 1000.14 1000.45 1000.88 1000.74 1001.13
1021.58 1021.66 1021.78 1021.92 1021.96 1021.85 1021.70 1021.46 1021.21 1020.98 1020.60 1019.78 1017.17 1017.80 1017.19 1014.70 1012.61 1012.09 1011.71 1011.35 1010.44 1009.95 1009.08 1008.11 1008.11 1007.15 1006.89 1006.11 1005.19 1003.99 1003.15 1002.64 1002.35 1002.25 1002.21 1002.30 1002.77 1002.42 1001.97 1001.61 1000.63 1000.64 1000.54 1000.66 1001.51 1001.96 1002.34
1021.36 1021.52 1021.66 1021.78 1021.80 1021.72 1021.58 1021.42 1021.21 1021.06 1020.77 1020.30 1017.60 1017.27 1017.57 1016.50 1013.55 1012.99 1012.60 1012.31 1011.80 1011.31 1010.76 1009.74 1008.72 1008.31 1007.19 1006.46 1005.44 1004.66 1003.72 1003.16 1003.09 1002.45 1002.54 1002.89 1002.83 1002.47 1002.21 1002.25 1003.02 1002.47 1002.24 1002.09 1002.68 1002.66 1002.90
Wind_Speed
12 12 12 13 13 13 14 14 14 14 14 15 15 14 14 14 15 14 14 14 14 14 14 13 11 9 9 10 8 13 12 10 14 17 15 14 12 9 12 1 6 1 4 1 1 4 1
13 13 13 13 14 14 15 15 15 15 15 16 15 15 15 15 15 15 15 15 15 15 14 12 10 7 9 14 5 5 11 15 16 17 16 13 9 5 9 7 8 4 3 1 1 2 2
13 14 14 15 15 15 15 15 15 15 16 16 16 16 15 15 16 16 16 16 17 15 12 10 9 9 12 8 1 4 10 16 17 17 16 12 12 10 3 11 3 8 9 8 5 1 3
14 15 15 15 16 16 16 17 17 17 17 17 17 16 16 16 16 16 16 16 16 15 10 10 8 11 9 6 3 7 9 13 13 15 13 8 6 13 10 7 11 13 10 4 6 2 3
14 15 15 16 16 17 17 17 17 17 16 17 18 18 18 17 16 15 14 16 17 6 5 8 9 10 10 5 10 12 11 11 12 11 10 5 11 14 14 11 14 10 10 4 9 2 5
15 16 16 17 17 17 17 17 17 18 18 18 17 17 17 17 15 14 14 15 7 5 9 9 8 8 8 12 12 12 11 9 13 12 11 13 10 14 14 13 12 4 6 7 4 8 6
15 16 17 18 18 17 17 18 18 19 19 19 18 18 17 16 15 12 13 6 9 9 13 11 6 5 6 6 10 13 12 13 13 14 15 16 14 16 17 17 16 7 10 9 7 3 6
15 16 16 17 17 17 18 19 19 19 20 20 19 18 17 16 14 14 8 9 8 8 9 18 11 11 4 12 12 14 15 13 13 16 18 15 18 17 15 15 13 9 14 12 8 1 9
15 15 16 16 16 17 18 19 19 20 20 20 20 18 17 16 15 7 11 10 6 8 9 13 13 15 13 11 15 18 18 17 13 17 17 19 8 17 18 11 12 14 15 13 10 9 13
15 15 15 16 17 18 19 20 21 21 21 21 20 18 16 15 6 4 10 7 6 5 8 15 12 10 15 12 14 19 19 14 11 16 18 14 16 8 15 14 15 17 12 12 12 9 10
14 16 16 16 17 18 19 20 21 22 22 22 21 18 14 7 12 9 8 2 6 6 9 14 11 8 13 14 10 17 19 16 15 13 11 14 13 15 14 14 15 18 14 12 11 13 14
15 16 17 17 18 19 19 20 22 23 24 23 21 17 10 7 8 10 4 4 7 9 5 9 10 12 16 19 10 15 16 20 13 14 13 17 5 9 14 14 14 8 8 14 13 13 14
15 16 17 17 18 19 20 21 22 24 25 25 22 15 7 8 2 3 6 7 9 11 5 10 12 16 17 17 17 12 19 20 16 14 15 17 19 15 13 11 13 15 14 11 12 11 12
14 16 16 17 18 20 21 22 24 25 26 26 23 9 11 9 2 6 7 10 10 5 1 4 4 13 15 18 18 15 18 18 21 17 15 12 16 22 17 17 10 12 16 13 11 12 8
13 14 15 17 19 20 21 23 25 27 28 26 24 7 8 7 7 6 9 11 6 5 7 5 9 11 14 15 13 15 18 18 19 20 17 7 9 7 12 16 15 15 15 16 19 18 13
13 15 15 16 18 20 22 23 26 28 31 24 7 7 4 6 7 8 9 16 10 5 7 7 14 13 15 17 17 16 16 14 17 19 18 10 11 10 9 12 13 15 14 11 12 15 16
12 14 15 16 18 20 21 23 25 28 32 25 7 7 8 8 7 8 11 10 4 5 6 9 12 12 10 14 18 18 13 12 9 16 15 16 13 7 11 14 15 11 13 15 17 12 12
12 13 14 15 17 20 21 23 24 26 32 13 7 5 6 6 9 9 12 11 4 12 7 11 8 15 15 11 15 13 18 16 14 13 13 18 12 14 18 12 17 17 15 13 12 16 11
11 12 13 15 16 19 20 23 24 23 20 10 7 6 7 7 9 9 12 7 6 12 10 6 9 10 12 13 12 14 16 12 5 9 8 12 11 15 16 15 17 12 16 17 16 16 17
10 12 13 14 15 17 20 22 23 25 19 7 6 4 6 7 11 12 14 9 13 8 11 7 11 12 9 15 15 14 14 8 4 11 8 6 13 16 14 15 8 8 11 18 18 14 14
9 10 12 14 16 17 18 20 23 27 26 7 3 4 6 4 2 8 9 11 11 13 10 6 10 12 14 12 16 16 16 14 13 6 8 12 19 19 21 21 20 18 13 15 15 15 15
8 9 10 12 13 15 16 18 21 27 33 6 7 6 7 11 9 10 8 11 13 14 8 13 10 15 6 11 15 16 9 17 16 14 15 17 17 18 21 20 19 21 20 21 20 20 21
8 8 9 10 12 14 15 16 18 22 24 5 6 4 6 5 9 8 5 8 6 7 10 10 13 10 11 9 13 11 11 16 11 11 14 13 15 16 19 21 22 24 23 22 23 22 19
8 7 7 8 10 12 13 13 15 17 16 10 6 8 7 9 3 8 8 7 10 9 10 13 4 9 6 12 14 14 17 18 18 17 15 16 18 12 17 19 23 17 18 18 17 20 17
8 7 6 6 8 10 11 12 14 14 16 10 5 6 6 8 9 9 8 8 9 9 12 14 14 12 10 11 12 15 13 18 20 20 19 17 16 15 16 18 23 21 13 13 18 16 13
8 7 5 4 6 7 9 11 11 12 14 10 4 6 7 8 7 8 11 11 10 10 10 10 7 7 11 10 11 16 13 15 15 22 21 21 19 16 15 21 26 16 11 8 14 15 13
7 6 5 4 5 7 8 9 10 11 12 10 3 5 6 8 7 6 6 10 10 8 9 8 5 7 10 10 11 13 14 15 16 17 11 10 11 17 17 19 20 19 19 11 13 6 7
7 6 5 3 4 6 7 8 8 9 12 10 5 4 6 7 13 13 12 10 8 8 8 7 8 12 8 10 11 11 11 13 14 15 17 14 13 13 13 20 26 14 19 19 1 3 3
7 7 5 4 3 4 6 7 7 8 10 11 6 2 3 7 10 15 15 16 15 14 11 9 11 8 7 8 4 6 8 7 9 12 8 14 16 15 16 9 9 11 10 4 7 5 4
Wind_Direction
24 21 19 14 10 5 0 357 355 352 350 347 345 342 337 335 332 329 325 324 321 318 311 305 301 301 274 220 254 126 143 157 184 212 222 214 229 240 271 298 273 297 1 17 65 342 357
21 19 15 10 5 2 358 355 352 349 346 343 340 338 334 332 330 328 326 324 315 309 300 292 286 292 247 250 74 131 168 176 194 209 218 225 243 283 300 273 285 13 18 92 256 25 223
16 14 11 7 4 1 356 352 349 347 344 341 338 336 333 331 328 327 325 320 313 302 287 271 260 251 262 255 20 192 183 190 201 211 219 226 260 261 278 251 89 275 266 188 157 17 304
18 14 13 10 6 1 358 354 351 347 343 340 338 335 334 331 328 324 320 314 304 299 259 237 229 243 265 69 270 194 182 187 205 211 251 249 256 275 280 311 253 243 252 172 112 234 121
16 12 10 7 4 358 353 351 348 343 338 335 334 332 331 330 325 322 316 310 298 286 197 195 215 237 246 130 204 191 195 187 192 202 220 302 255 251 249 245 250 200 259 100 138 145 303
11 6 5 3 360 354 350 347 344 339 336 334 332 328 326 324 320 316 310 294 320 206 204 211 272 241 228 222 182 168 192 188 188 189 198 218 227 238 228 249 243 293 194 179 279 136 256
7 4 2 359 354 349 346 343 339 336 333 331 330 326 323 320 318 315 299 199 205 185 208 234 191 254 130 107 154 188 182 180 193 205 214 200 219 229 235 222 276 327 296 286 258 101 291
4 1 358 354 348 344 341 338 335 332 330 328 326 324 321 318 315 311 256 248 30 348 285 211 237 245 298 174 184 177 182 191 203 210 217 213 231 243 242 260 256 264 251 254 250 160 268
1 357 352 348 344 341 339 335 332 329 328 325 323 322 320 319 321 263 236 242 336 326 255 172 210 214 187 212 213 178 197 216 201 216 215 236 218 209 250 238 249 246 264 275 296 332 283
359 354 350 347 343 340 337 333 330 328 326 323 321 319 320 319 284 202 225 217 240 305 266 147 189 204 189 213 231 180 200 211 212 234 230 232 255 228 256 228 250 248 243 249 270 268 274
356 356 349 346 343 340 336 333 328 326 324 322 319 316 313 266 325 234 43 222 291 241 261 152 134 104 183 208 124 193 183 214 242 216 231 230 225 242 231 247 240 257 273 284 271 259 268
356 354 348 345 342 339 335 333 330 327 324 321 319 314 301 195 220 274 275 249 239 231 226 150 142 184 190 211 190 144 187 223 233 257 231 260 231 253 251 242 245 261 253 257 256 249 252
356 352 345 342 340 338 336 334 331 328 325 323 321 312 233 311 20 172 217 229 230 252 126 154 182 172 196 192 216 180 191 199 217 221 231 222 239 217 238 250 228 234 239 240 221 221 248
352 349 344 342 340 339 337 336 333 330 329 327 324 314 197 274 290 238 220 229 256 2 171 62 196 180 201 180 210 192 191 210 218 230 274 206 211 212 206 230 234 221 234 253 254 250 270
345 345 344 343 341 339 338 337 335 333 333 334 314 201 219 151 203 231 232 229 266 16 14 253 175 228 204 187 216 196 215 213 215 222 247 235 234 113 201 204 229 234 214 250 276 278 275
343 344 344 343 341 340 339 340 338 337 333 340 301 239 109 158 185 229 243 258 298 312 299 249 259 204 226 200 206 226 208 220 229 205 235 267 269 177 184 239 219 247 269 234 227 262 272
340 341 341 340 342 341 340 341 340 339 335 329 256 240 115 175 218 230 242 246 322 220 271 262 265 276 252 284 200 237 222 223 236 208 220 236 259 262 174 200 237 185 233 249 273 272 260
336 339 340 342 343 342 342 342 342 343 338 320 283 254 128 207 227 231 251 299 22 282 199 262 263 287 289 286 265 226 250 251 173 253 230 221 251 239 248 223 222 247 270 216 234 235 260
331 339 341 343 344 342 343 343 341 344 359 315 295 301 148 232 252 238 231 263 254 276 250 264 258 257 276 268 273 271 254 87 137 228 240 236 224 251 254 243 224 233 244 259 269 246 253
327 336 340 342 344 345 345 344 339 337 346 300 279 259 161 208 267 283 297 278 260 170 281 285 282 300 272 258 261 265 269 146 173 239 0 293 256 253 265 244 354 306 228 254 258 260 261
321 329 335 341 345 348 347 345 341 337 335 293 275 48 3 277 158 304 293 288 294 264 194 253 265 255 268 271 258 243 243 265 164 174 255 240 255 264 273 275 283 286 256 268 279 284 278
305 316 329 339 344 347 350 349 348 341 334 245 320 337 354 286 274 270 244 252 256 263 257 270 226 278 253 275 277 298 334 247 258 196 214 248 251 269 274 274 274 278 269 275 262 258 263
298 306 320 334 344 347 352 352 354 352 339 337 4 286 275 277 274 262 287 304 307 338 298 277 301 310 285 318 336 319 307 302 304 285 280 231 258 257 256 260 254 249 253 259 270 269 263
284 293 311 326 342 345 350 356 358 356 356 316 17 297 276 286 233 304 342 316 290 291 288 307 274 278 328 326 300 269 265 265 266 260 253 258 268 265 269 277 259 265 270 280 272 278 275
271 271 292 321 335 341 344 353 356 354 347 316 344 320 314 291 320 284 266 289 286 263 242 253 267 278 309 289 279 266 253 252 246 244 244 248 258 256 259 255 267 263 263 268 270 261 262
263 260 273 304 322 333 341 346 352 349 345 309 33 311 290 298 76 357 307 300 293 296 277 231 220 287 283 268 254 246 250 259 249 231 228 240 242 250 248 257 260 272 290 0 330 286 271
251 245 252 278 313 328 338 347 348 345 341 317 321 343 280 288 285 330 300 335 336 302 285 286 234 258 224 253 249 249 253 245 260 269 264 234 238 259 252 249 256 271 283 304 255 266 14
241 228 231 254 301 325 335 344 349 347 340 323 345 31 313 298 299 300 284 278 273 236 271 49 277 204 264 244 261 258 252 253 257 255 262 248 229 255 247 258 262 271 258 239 106 59 37
235 214 211 236 281 313 330 340 346 346 335 334 287 44 285 269 303 319 289 278 278 285 293 296 290 306 336 305 286 293 275 275 269 272 226 246 259 276 272 273 23 333 322 63 329 311 274